TimeCST,TemperatureF,Dew PointF,Humidity,Sea Level PressureIn,VisibilityMPH,Wind Direction,Wind SpeedMPH,Gust SpeedMPH,PrecipitationIn,Events,Conditions,WindDirDegrees,DateUTC
12:56 AM,45.9,25.2,44,29.98,10.0,SSW,23.0,-,N/A,,Overcast,200,2011-11-19 06:56:00
1:56 AM,45.9,26.1,46,29.98,10.0,South,18.4,-,N/A,,Overcast,190,2011-11-19 07:56:00
2:56 AM,45.9,28.0,50,29.96,10.0,South,19.6,-,N/A,,Overcast,190,2011-11-19 08:56:00
3:56 AM,46.9,29.1,50,29.94,10.0,South,19.6,-,N/A,,Overcast,190,2011-11-19 09:56:00
4:56 AM,46.9,30.0,52,29.94,10.0,South,16.1,-,N/A,,Overcast,180,2011-11-19 10:56:00
5:56 AM,47.8,30.0,50,29.93,10.0,South,18.4,-,N/A,,Overcast,180,2011-11-19 11:56:00
6:56 AM,47.8,32.0,54,29.93,10.0,South,18.4,-,N/A,,Overcast,180,2011-11-19 12:56:00
7:56 AM,48.9,32.9,54,29.93,10.0,South,17.3,-,N/A,,Overcast,180,2011-11-19 13:56:00
8:56 AM,50.0,34.9,56,29.92,10.0,South,21.9,-,0.00,,Overcast,180,2011-11-19 14:56:00
9:56 AM,52.0,37.9,59,29.89,10.0,South,29.9,-,N/A,,Overcast,190,2011-11-19 15:56:00
10:56 AM,52.9,41.9,66,29.88,10.0,South,20.7,-,N/A,,Overcast,190,2011-11-19 16:56:00
12:56 PM,54.9,45.0,69,29.80,10.0,South,26.5,-,N/A,,Overcast,190,2011-11-19 18:56:00
1:56 PM,55.9,46.9,72,29.79,10.0,South,26.5,-,N/A,,Overcast,190,2011-11-19 19:56:00
2:56 PM,55.9,47.8,74,29.80,10.0,South,26.5,-,N/A,,Overcast,190,2011-11-19 20:56:00
3:56 PM,55.9,48.9,77,29.79,10.0,South,21.9,-,N/A,,Overcast,190,2011-11-19 21:56:00
4:56 PM,55.9,50.0,80,29.78,10.0,South,26.5,-,N/A,,Scattered Clouds,190,2011-11-19 22:56:00
5:56 PM,55.9,50.9,83,29.80,10.0,South,24.2,-,N/A,,Scattered Clouds,190,2011-11-19 23:56:00
6:56 PM,56.8,52.0,84,29.81,10.0,SSW,26.5,-,N/A,,Clear,200,2011-11-20 00:56:00
7:56 PM,57.9,52.9,83,29.81,10.0,SSW,31.1,-,N/A,,Clear,200,2011-11-20 01:56:00
8:56 PM,59.0,54.0,83,29.85,10.0,SSW,23.0,-,N/A,,Scattered Clouds,210,2011-11-20 02:56:00
9:56 PM,59.9,54.0,81,29.88,10.0,SW,27.6,-,N/A,,Mostly Cloudy,220,2011-11-20 03:56:00
10:56 PM,59.0,54.9,86,29.92,10.0,SW,20.7,-,N/A,,Mostly Cloudy,220,2011-11-20 04:56:00
11:14 PM,59.0,55.4,88,29.93,10.0,SW,19.6,-,N/A,,Overcast,220,2011-11-20 05:14:00
11:56 PM,59.0,54.0,83,29.96,10.0,West,19.6,-,N/A,,Overcast,260,2011-11-20 05:56:00